| time (UTC) | temp F | wind direction | speed MPH | gust MPH | rain 1hr in | rain 24hr in | rain mn in | humidity % | barometer mb |
| 20260504050503 | 57 | 0 | 0.0 | 0.0 | 0.00 | 0.00 | 0.00 | 67 | 1008.7 |
| 20260504050003 | 57 | 0 | 0.0 | 0.0 | 0.00 | 0.00 | 0.00 | 67 | 1008.7 |
| 20260504045503 | 57 | 0 | 0.0 | 0.0 | 0.00 | 0.00 | 0.00 | 66 | 1008.7 |
| 20260504045003 | 57 | 0 | 0.0 | 0.0 | 0.00 | 0.00 | 0.00 | 67 | 1008.7 |
| 20260504044504 | 57 | 0 | 0.0 | 0.0 | 0.00 | 0.00 | 0.00 | 66 | 1008.6 |
| 20260504044003 | 57 | 0 | 0.0 | 0.0 | 0.00 | 0.00 | 0.00 | 66 | 1008.6 |
| 20260504043718 | 58 | 0 | 0.0 | 0.0 | 0.00 | 0.00 | 0.00 | 66 | 1008.6 |
| 20260504043217 | 58 | 0 | 0.0 | 0.0 | 0.00 | 0.00 | 0.00 | 65 | 1008.7 |
| 20260504042503 | 58 | 235 | 0.0 | 1.0 | 0.00 | 0.00 | 0.00 | 65 | 1008.7 |
| 20260504042003 | 58 | 235 | 0.0 | 1.0 | 0.00 | 0.00 | 0.00 | 64 | 1008.9 |
| 20260504041718 | 58 | 235 | 0.0 | 1.0 | 0.00 | 0.00 | 0.00 | 64 | 1008.9 |
| 20260504041003 | 58 | 0 | 0.0 | 0.0 | 0.00 | 0.00 | 0.00 | 64 | 1008.9 |
| 20260504040718 | 58 | 0 | 0.0 | 0.0 | 0.00 | 0.00 | 0.00 | 64 | 1008.9 |
| 20260504040006 | 59 | 236 | 0.0 | 1.0 | 0.00 | 0.00 | 0.00 | 63 | 1009.0 |
| 20260504035503 | 59 | 232 | 0.0 | 1.0 | 0.00 | 0.00 | 0.00 | 63 | 1009.0 |
| 20260504035217 | 59 | 230 | 0.0 | 3.0 | 0.00 | 0.00 | 0.00 | 63 | 1009.0 |
| 20260504034503 | 59 | 228 | 0.0 | 3.0 | 0.00 | 0.00 | 0.00 | 62 | 1009.0 |
| 20260504034003 | 59 | 0 | 0.0 | 0.0 | 0.00 | 0.00 | 0.00 | 62 | 1009.1 |
| 20260504033504 | 60 | 0 | 0.0 | 0.0 | 0.00 | 0.00 | 0.00 | 62 | 1009.1 |
| 20260504033003 | 60 | 0 | 0.0 | 0.0 | 0.00 | 0.00 | 0.00 | 61 | 1009.1 |
| 20260504032503 | 60 | 105 | 0.0 | 2.0 | 0.00 | 0.00 | 0.00 | 61 | 1009.3 |
| 20260504032003 | 60 | 105 | 0.0 | 2.0 | 0.00 | 0.00 | 0.00 | 61 | 1009.2 |
| 20260504031503 | 60 | 105 | 0.0 | 2.0 | 0.00 | 0.00 | 0.00 | 60 | 1009.2 |
| 20260504031217 | 60 | 105 | 0.0 | 2.0 | 0.00 | 0.00 | 0.00 | 60 | 1009.3 |
| 20260504030503 | 60 | 129 | 0.0 | 1.0 | 0.00 | 0.00 | 0.00 | 60 | 1009.4 |
| 20260504030003 | 60 | 129 | 0.0 | 1.0 | 0.00 | 0.00 | 0.00 | 60 | 1009.4 |
| 20260504025503 | 60 | 132 | 0.0 | 2.0 | 0.00 | 0.00 | 0.00 | 61 | 1009.5 |
| 20260504025003 | 60 | 126 | 0.0 | 3.0 | 0.00 | 0.00 | 0.00 | 60 | 1009.4 |
| 20260504024718 | 60 | 123 | 0.0 | 3.0 | 0.00 | 0.00 | 0.00 | 60 | 1009.4 |
| 20260504024003 | 60 | 131 | 0.0 | 2.0 | 0.00 | 0.00 | 0.00 | 60 | 1009.5 |
| 20260504023503 | 60 | 130 | 0.0 | 1.0 | 0.00 | 0.00 | 0.00 | 60 | 1009.4 |
| 20260504023003 | 60 | 130 | 0.0 | 1.0 | 0.00 | 0.00 | 0.00 | 61 | 1009.4 |
| 20260504022718 | 60 | 0 | 0.0 | 0.0 | 0.00 | 0.00 | 0.00 | 60 | 1009.4 |
| 20260504022003 | 60 | 240 | 0.0 | 1.0 | 0.00 | 0.00 | 0.00 | 61 | 1009.4 |
| 20260504021504 | 61 | 235 | 0.0 | 3.0 | 0.00 | 0.00 | 0.00 | 61 | 1009.4 |
| 20260504021003 | 61 | 242 | 0.0 | 3.0 | 0.00 | 0.00 | 0.00 | 60 | 1009.3 |
| 20260504020503 | 61 | 246 | 0.0 | 1.0 | 0.00 | 0.00 | 0.00 | 60 | 1009.3 |
| 20260504020003 | 61 | 113 | 0.0 | 1.0 | 0.00 | 0.00 | 0.00 | 59 | 1009.3 |
| 20260504015503 | 61 | 116 | 0.0 | 2.0 | 0.00 | 0.00 | 0.00 | 59 | 1009.2 |
| 20260504015219 | 61 | 116 | 0.0 | 2.0 | 0.00 | 0.00 | 0.00 | 59 | 1009.1 |
| 20260504014503 | 61 | 98 | 0.0 | 1.0 | 0.00 | 0.00 | 0.00 | 58 | 1009.0 |
| 20260504014003 | 62 | 236 | 0.0 | 1.0 | 0.00 | 0.00 | 0.00 | 58 | 1008.9 |
| 20260504013503 | 62 | 246 | 0.0 | 1.0 | 0.00 | 0.00 | 0.00 | 59 | 1009.1 |
| 20260504013003 | 62 | 0 | 0.0 | 0.0 | 0.00 | 0.00 | 0.00 | 58 | 1009.1 |
| 20260504012503 | 62 | 0 | 0.0 | 0.0 | 0.00 | 0.00 | 0.00 | 57 | 1009.0 |
| 20260504012003 | 62 | 91 | 0.0 | 1.0 | 0.00 | 0.00 | 0.00 | 57 | 1009.0 |
| 20260504011503 | 62 | 92 | 0.0 | 2.0 | 0.00 | 0.00 | 0.00 | 57 | 1009.0 |
| 20260504011003 | 62 | 92 | 0.0 | 2.0 | 0.00 | 0.00 | 0.00 | 57 | 1009.0 |
| 20260504010503 | 62 | 140 | 0.0 | 1.0 | 0.00 | 0.00 | 0.00 | 57 | 1009.1 |
| 20260504010218 | 62 | 233 | 0.0 | 2.0 | 0.00 | 0.00 | 0.00 | 57 | 1009.0 |
| 20260504005717 | 63 | 217 | 0.0 | 4.0 | 0.00 | 0.00 | 0.00 | 57 | 1009.0 |
| 20260504005004 | 63 | 233 | 0.0 | 4.0 | 0.00 | 0.00 | 0.00 | 57 | 1009.1 |
| 20260504004503 | 63 | 182 | 0.0 | 3.0 | 0.00 | 0.00 | 0.00 | 56 | 1009.1 |
| 20260504004003 | 63 | 175 | 0.0 | 3.0 | 0.00 | 0.00 | 0.00 | 56 | 1009.1 |
| 20260504003503 | 63 | 139 | 0.0 | 2.0 | 0.00 | 0.00 | 0.00 | 56 | 1009.1 |
| 20260504003218 | 63 | 135 | 0.0 | 3.0 | 0.00 | 0.00 | 0.00 | 56 | 1009.2 |
| 20260504002503 | 64 | 209 | 0.0 | 5.0 | 0.00 | 0.00 | 0.00 | 57 | 1009.1 |
| 20260504002003 | 64 | 186 | 1.0 | 5.0 | 0.00 | 0.00 | 0.00 | 55 | 1009.0 |
| 20260504001503 | 64 | 192 | 1.0 | 4.0 | 0.00 | 0.00 | 0.00 | 56 | 1009.1 |
| 20260504001003 | 64 | 163 | 1.0 | 4.0 | 0.00 | 0.00 | 0.00 | 55 | 1009.0 |
| 20260504000503 | 64 | 164 | 1.0 | 4.0 | 0.00 | 0.00 | 0.00 | 56 | 1008.9 |
| 20260504000003 | 64 | 217 | 1.0 | 4.0 | 0.00 | 0.00 | 0.00 | 56 | 1009.2 |
| 20260503235717 | 64 | 220 | 1.0 | 4.0 | 0.00 | 0.00 | 0.00 | 55 | 1009.1 |
| 20260503235003 | 64 | 165 | 1.0 | 3.0 | 0.00 | 0.00 | 0.00 | 56 | 1009.4 |
| 20260503234717 | 64 | 193 | 1.0 | 3.0 | 0.00 | 0.00 | 0.00 | 56 | 1009.3 |
| 20260503234003 | 64 | 221 | 0.0 | 2.0 | 0.00 | 0.00 | 0.00 | 56 | 1009.5 |
| 20260503233503 | 64 | 213 | 0.0 | 1.0 | 0.00 | 0.00 | 0.00 | 55 | 1009.7 |
| 20260503233003 | 64 | 169 | 0.0 | 1.0 | 0.00 | 0.00 | 0.00 | 55 | 1010.0 |
| 20260503232503 | 64 | 137 | 0.0 | 2.0 | 0.00 | 0.00 | 0.00 | 55 | 1010.0 |
| 20260503232217 | 64 | 113 | 0.0 | 4.0 | 0.00 | 0.00 | 0.00 | 55 | 1010.2 |
| 20260503231718 | 64 | 120 | 0.0 | 4.0 | 0.00 | 0.00 | 0.00 | 55 | 1010.0 |
| 20260503231003 | 64 | 189 | 1.0 | 4.0 | 0.00 | 0.00 | 0.00 | 54 | 1010.0 |
| 20260503230716 | 64 | 224 | 1.0 | 4.0 | 0.00 | 0.00 | 0.00 | 53 | 1009.9 |
| 20260503230003 | 64 | 193 | 0.0 | 4.0 | 0.00 | 0.00 | 0.00 | 53 | 1010.2 |
| 20260503225503 | 64 | 170 | 1.0 | 2.0 | 0.00 | 0.00 | 0.00 | 53 | 1010.4 |
| 20260503225003 | 64 | 212 | 1.0 | 5.0 | 0.00 | 0.00 | 0.00 | 53 | 1010.6 |
| 20260503224503 | 64 | 220 | 1.0 | 5.0 | 0.00 | 0.00 | 0.00 | 53 | 1010.6 |
| 20260503224217 | 64 | 223 | 1.0 | 3.0 | 0.00 | 0.00 | 0.00 | 53 | 1010.5 |
| 20260503223503 | 64 | 218 | 1.0 | 8.0 | 0.00 | 0.00 | 0.00 | 53 | 1010.5 |
| 20260503223217 | 64 | 210 | 1.0 | 8.0 | 0.00 | 0.00 | 0.00 | 53 | 1010.5 |
| 20260503222503 | 64 | 234 | 1.0 | 6.0 | 0.00 | 0.00 | 0.00 | 52 | 1010.6 |
| 20260503222003 | 64 | 219 | 0.0 | 4.0 | 0.00 | 0.00 | 0.00 | 53 | 1010.5 |
| 20260503221503 | 64 | 171 | 0.0 | 3.0 | 0.00 | 0.00 | 0.00 | 54 | 1010.5 |
| 20260503221003 | 64 | 158 | 1.0 | 5.0 | 0.00 | 0.00 | 0.00 | 54 | 1010.4 |
| 20260503220503 | 64 | 166 | 1.0 | 5.0 | 0.00 | 0.00 | 0.00 | 53 | 1010.2 |
| 20260503220003 | 64 | 185 | 1.0 | 7.0 | 0.00 | 0.00 | 0.00 | 53 | 1010.1 |
| 20260503215503 | 64 | 199 | 1.0 | 7.0 | 0.00 | 0.00 | 0.00 | 53 | 1010.0 |
| 20260503215003 | 64 | 193 | 1.0 | 4.0 | 0.00 | 0.00 | 0.00 | 55 | 1010.2 |
| 20260503214503 | 64 | 234 | 1.0 | 4.0 | 0.00 | 0.00 | 0.00 | 54 | 1010.3 |
| 20260503214217 | 64 | 247 | 1.0 | 3.0 | 0.00 | 0.00 | 0.00 | 53 | 1010.5 |
| 20260503213503 | 64 | 174 | 1.0 | 8.0 | 0.00 | 0.00 | 0.00 | 53 | 1010.7 |
| 20260503213003 | 64 | 217 | 1.0 | 8.0 | 0.00 | 0.00 | 0.00 | 52 | 1010.6 |
| 20260503212503 | 64 | 196 | 1.0 | 8.0 | 0.00 | 0.00 | 0.00 | 51 | 1010.6 |
| 20260503212003 | 64 | 195 | 2.0 | 5.0 | 0.00 | 0.00 | 0.00 | 52 | 1010.8 |
| 20260503211503 | 64 | 212 | 1.0 | 6.0 | 0.00 | 0.00 | 0.00 | 52 | 1010.9 |
| 20260503211003 | 64 | 210 | 1.0 | 6.0 | 0.00 | 0.00 | 0.00 | 52 | 1010.9 |
| 20260503210718 | 64 | 213 | 1.0 | 5.0 | 0.00 | 0.00 | 0.00 | 52 | 1011.1 |
| 20260503210004 | 63 | 223 | 2.0 | 7.0 | 0.00 | 0.00 | 0.00 | 51 | 1011.2 |
| 20260503205503 | 63 | 217 | 2.0 | 7.0 | 0.00 | 0.00 | 0.00 | 52 | 1011.4 |
| 20260503205003 | 63 | 227 | 2.0 | 6.0 | 0.00 | 0.00 | 0.00 | 51 | 1011.7 |
| 20260503204503 | 63 | 236 | 2.0 | 9.0 | 0.00 | 0.00 | 0.00 | 51 | 1011.6 |
| 20260503204003 | 63 | 215 | 1.0 | 9.0 | 0.00 | 0.00 | 0.00 | 51 | 1011.5 |
| 20260503203717 | 63 | 197 | 2.0 | 9.0 | 0.00 | 0.00 | 0.00 | 51 | 1011.8 |
| 20260503203003 | 63 | 133 | 2.0 | 14.0 | 0.00 | 0.00 | 0.00 | 51 | 1011.1 |
| 20260503202717 | 63 | 118 | 2.0 | 14.0 | 0.00 | 0.00 | 0.00 | 50 | 1011.1 |
| 20260503202003 | 63 | 117 | 1.0 | 5.0 | 0.00 | 0.00 | 0.00 | 53 | 1011.7 |
| 20260503201503 | 63 | 153 | 1.0 | 4.0 | 0.00 | 0.00 | 0.00 | 53 | 1012.1 |
| 20260503201003 | 63 | 208 | 1.0 | 5.0 | 0.00 | 0.00 | 0.00 | 51 | 1012.4 |
| 20260503200503 | 63 | 221 | 2.0 | 6.0 | 0.00 | 0.00 | 0.00 | 50 | 1013.0 |
| 20260503200004 | 63 | 203 | 2.0 | 6.0 | 0.00 | 0.00 | 0.00 | 51 | 1012.9 |
| 20260503195717 | 63 | 207 | 2.0 | 6.0 | 0.00 | 0.00 | 0.00 | 52 | 1013.0 |
| 20260503195003 | 63 | 240 | 2.0 | 8.0 | 0.00 | 0.00 | 0.00 | 51 | 1013.2 |
| 20260503194504 | 63 | 241 | 2.0 | 8.0 | 0.00 | 0.00 | 0.00 | 49 | 1013.3 |
| 20260503194218 | 63 | 244 | 2.0 | 8.0 | 0.00 | 0.00 | 0.00 | 50 | 1013.4 |
| 20260503193503 | 64 | 242 | 2.0 | 8.0 | 0.00 | 0.00 | 0.00 | 49 | 1013.5 |
| 20260503193003 | 64 | 247 | 2.0 | 8.0 | 0.00 | 0.00 | 0.00 | 49 | 1013.5 |
| 20260503192503 | 64 | 247 | 2.0 | 6.0 | 0.00 | 0.00 | 0.00 | 47 | 1013.5 |
| 20260503192004 | 64 | 247 | 2.0 | 7.0 | 0.00 | 0.00 | 0.00 | 47 | 1013.5 |
| 20260503191503 | 65 | 245 | 3.0 | 12.0 | 0.00 | 0.00 | 0.00 | 45 | 1013.3 |
| 20260503191003 | 65 | 243 | 3.0 | 12.0 | 0.00 | 0.00 | 0.00 | 45 | 1013.6 |
| 20260503190503 | 65 | 245 | 2.0 | 8.0 | 0.00 | 0.00 | 0.00 | 47 | 1013.4 |
| 20260503190003 | 65 | 245 | 3.0 | 8.0 | 0.00 | 0.00 | 0.00 | 46 | 1013.5 |
| 20260503185717 | 65 | 249 | 3.0 | 8.0 | 0.00 | 0.00 | 0.00 | 45 | 1013.6 |
| 20260503185003 | 66 | 185 | 2.0 | 7.0 | 0.00 | 0.00 | 0.00 | 47 | 1013.7 |
| 20260503184717 | 66 | 224 | 2.0 | 9.0 | 0.00 | 0.00 | 0.00 | 46 | 1013.7 |
| 20260503184003 | 66 | 245 | 2.0 | 9.0 | 0.00 | 0.00 | 0.00 | 45 | 1014.1 |
| 20260503174718 | 64 | 244 | 2.0 | 8.0 | 0.00 | 0.00 | 0.00 | 51 | 1015.2 |
| 20260503174003 | 64 | 239 | 2.0 | 10.0 | 0.00 | 0.00 | 0.00 | 51 | 1015.4 |
| 20260503173503 | 64 | 231 | 2.0 | 10.0 | 0.00 | 0.00 | 0.00 | 50 | 1015.7 |
| 20260503173003 | 64 | 205 | 2.0 | 8.0 | 0.00 | 0.00 | 0.00 | 50 | 1015.8 |
| 20260503172504 | 64 | 173 | 2.0 | 7.0 | 0.00 | 0.00 | 0.00 | 52 | 1015.8 |
| 20260503172003 | 64 | 181 | 2.0 | 7.0 | 0.00 | 0.00 | 0.00 | 51 | 1015.9 |
| 20260503171503 | 64 | 194 | 1.0 | 4.0 | 0.00 | 0.00 | 0.00 | 52 | 1015.9 |
| 20260503171003 | 64 | 211 | 2.0 | 7.0 | 0.00 | 0.00 | 0.00 | 52 | 1016.1 |
| 20260503170718 | 64 | 199 | 1.0 | 7.0 | 0.00 | 0.00 | 0.00 | 54 | 1016.0 |
| 20260503151003 | 57 | 247 | 2.0 | 9.0 | 0.00 | 0.00 | 0.00 | 58 | 1017.7 |
| 20260503150503 | 58 | 242 | 1.0 | 6.0 | 0.00 | 0.00 | 0.00 | 61 | 1017.8 |
| 20260503140218 | 54 | 214 | 0.0 | 5.0 | 0.00 | 0.00 | 0.00 | 71 | 1018.1 |
| 20260503131003 | 50 | 235 | 0.0 | 4.0 | 0.00 | 0.00 | 0.00 | 74 | 1017.9 |
| 20260503130503 | 49 | 202 | 1.0 | 4.0 | 0.00 | 0.00 | 0.00 | 74 | 1017.9 |
| 20260503110503 | 38 | 0 | 0.0 | 0.0 | 0.00 | 0.00 | 0.00 | 90 | 1017.7 |
| 20260503090503 | 37 | 0 | 0.0 | 0.0 | 0.00 | 0.00 | 0.00 | 90 | 1017.6 |
| 20260503081503 | 38 | 0 | 0.0 | 0.0 | 0.00 | 0.00 | 0.00 | 90 | 1017.6 |
| 20260503081003 | 38 | 0 | 0.0 | 0.0 | 0.00 | 0.00 | 0.00 | 90 | 1017.6 |
| 20260503080503 | 38 | 0 | 0.0 | 0.0 | 0.00 | 0.00 | 0.00 | 90 | 1017.6 |
| 20260503072718 | 39 | 0 | 0.0 | 0.0 | 0.00 | 0.00 | 0.00 | 89 | 1017.5 |
| 20260503072003 | 39 | 0 | 0.0 | 0.0 | 0.00 | 0.00 | 0.00 | 88 | 1017.5 |
| 20260503071503 | 39 | 0 | 0.0 | 0.0 | 0.00 | 0.00 | 0.00 | 88 | 1017.6 |
| 20260503071003 | 39 | 0 | 0.0 | 0.0 | 0.00 | 0.00 | 0.00 | 88 | 1017.6 |
| 20260503070503 | 39 | 0 | 0.0 | 0.0 | 0.00 | 0.00 | 0.00 | 88 | 1017.7 |
| 20260503055003 | 40 | 0 | 0.0 | 0.0 | 0.00 | 0.00 | 0.00 | 86 | 1018.0 |